TELSTAR 18V

Last updated on Tue Sep 22 2026 00:03:14 GMT+0000 (Coordinated Universal Time)

1 43611U 18069A 26264.15322358 -.00000297 00000+0 00000+0 0 9995 2 43611 0.0210 250.9075 0001850 290.8530 11.4545 1.00272790 29604
UTC large
Height (km)
Speed (km/s)
/
Latitude / Longitude
Inclination (degrees)
Orbital Period (minutes)
Azimuth
Elevation
Range (km)
Doppler Factor

Next 0 passes for location: London (51.5072 / 0.1276)

No passes found over London.
TELSTAR 18V